[[{"header":{"parameterUnit":"m.s-1","parameterCategory":1,"la1":30.2991,"la2":30.254,"lo1":-89.0895,"lo2":-89.0444,"dy":0.0017,"dx":0.0017,"nx":28,"ny":28,"refTime":"2026-02-09T09:00:00:Z","depth":0,"parameterNumber":2,"parameterNumberName":"U-component_of_WINDS"},"data":[0,0,0,0,0,0,0,0,0,0,0,0,0,0,0,0,0,0,0,0,0,0,0,0,0,0,0,0,0,0,0,0,0,0,0,0,0,0,0,0,0,0,0,0,0,0,0,0,0,0,0,0,0,0,0,0,0,0,-0.8503,-0.8503,0,-0.8504,-0.8504,-0.8504,-0.85,-0.85,-0.85,-0.85,-0.8502,-0.8502,-0.8502,0,0,0,0,0,0,0,0,0,0,0,0,0,-0.8497,-0.8497,-0.8503,-0.8503,-0.8503,-0.8504,-0.8504,-0.8504,-0.85,-0.85,-0.85,-0.85,-0.8502,-0.8502,-0.8502,0,0,0,0,0,0,0,0,0,0,0,0,0,-0.8499,-0.8497,-0.8503,-0.8501,-0.8501,-0.8504,-0.8504,-0.8504,-0.85,-0.85,-0.85,-0.85,-0.8502,-0.8502,-0.8502,-0.8507,0,0,-0.8503,-0.8503,0,0,0,0,0,0,0,0,-0.8499,-0.8499,-0.8501,-0.8501,-0.8501,-0.8502,-0.8503,-0.8505,-0.8501,-0.8501,-0.85,-0.85,-0.8502,-0.8502,-0.8503,-0.8507,-0.8507,-0.8503,-0.8503,-0.8503,-0.8503,0,0,0,0,0,0,0,-0.8499,-0.8499,-0.8504,-0.8502,-0.8501,-0.85,-0.85,-0.8503,-0.8502,-0.8501,-0.85,-0.8501,-0.8502,-0.8503,-0.8503,-0.8507,-0.8503,-0.8503,-0.8503,-0.8503,-0.8515,-0.8515,0,0,0,0,0,0,-0.8499,-0.8499,-0.8503,-0.8504,-0.85,-0.8501,-0.8501,-0.8502,-0.8502,-0.8502,-0.8501,-0.85,-0.8502,-0.8503,-0.8503,-0.8508,-0.8503,-0.8503,-0.8504,-0.8515,-0.8515,-0.8515,0,0,0,0,0,0,-0.8499,-0.8499,-0.8503,-0.8501,-0.8502,-0.8501,-0.8502,-0.8502,-0.8503,-0.8502,-0.8502,-0.8502,-0.8502,-0.8503,-0.8506,-0.8508,-0.8504,-0.8504,-0.8515,-0.8515,-0.8515,-0.8519,0,0,0,0,0,0,-0.8499,-0.8499,-0.8501,-0.8501,-0.8502,-0.8506,-0.8502,-0.8502,-0.8503,-0.8503,-0.8503,-0.8503,-0.8502,-0.8506,-0.8506,-0.8509,-0.8504,-0.8515,-0.8515,-0.8515,-0.8519,-0.852,-0.852,0,0,0,0,0,-0.8498,-0.8503,-0.8501,-0.8502,-0.8504,-0.8507,-0.8507,-0.8506,-0.8503,-0.8505,-0.8505,-0.8503,-0.8508,-0.8506,-0.8507,-0.8509,-0.8514,-0.8515,-0.8515,-0.8519,-0.8519,-0.852,0,0,0,0,0,0,-0.8503,-0.8503,-0.8501,-0.8506,-0.8506,-0.8506,-0.8508,-0.8507,-0.8508,-0.8508,-0.8506,-0.8506,-0.8509,-0.851,-0.8507,-0.8513,-0.8511,-0.8511,-0.8513,-0.8514,-0.8515,-0.8514,-0.8504,0,0,0,0,0,-0.8505,-0.8507,-0.8506,-0.851,-0.851,-0.8509,-0.851,-0.8509,-0.851,-0.851,-0.851,-0.851,-0.8512,-0.8513,-0.8515,-0.8519,-0.8519,-0.8521,-0.8521,-0.8522,-0.8522,-0.8524,-0.8525,-0.8517,-0.8517,-0.8517,0,0,-0.8508,-0.8508,-0.851,-0.8511,-0.8511,-0.8513,-0.851,-0.8512,-0.8513,-0.851,-0.8513,-0.8513,-0.8514,-0.8517,-0.8519,-0.8517,-0.8525,-0.8522,-0.8523,-0.8523,-0.8524,-0.8525,-0.8526,-0.8517,-0.8517,-0.8517,0,0,-0.8515,-0.8516,-0.8518,-0.8519,-0.8519,-0.8518,-0.8519,-0.8518,-0.8518,-0.8521,-0.8519,-0.852,-0.8523,-0.8523,-0.8524,-0.853,-0.8528,-0.853,-0.8534,-0.8535,-0.8536,-0.8536,-0.8538,-0.8538,-0.8531,-0.8531,-0.8531,0,-0.8519,-0.8522,-0.852,-0.8522,-0.8523,-0.852,-0.8523,-0.8523,-0.8524,-0.8524,-0.8522,-0.8525,-0.8526,-0.8529,-0.853,-0.8531,-0.8531,-0.853,-0.8536,-0.8536,-0.8537,-0.8538,-0.8539,-0.8531,-0.8531,-0.8531,-0.8531,0,-0.8527,-0.8528,-0.8531,-0.8531,-0.8532,-0.8534,-0.8533,-0.8534,-0.8532,-0.8531,-0.8534,-0.8534,-0.8535,-0.8536,-0.8535,-0.8539,-0.8538,-0.8536,-0.8533,-0.8538,-0.8539,-0.854,-0.8531,-0.8531,-0.8531,-0.8531,0,0,-0.8537,-0.8536,-0.8537,-0.8536,-0.8536,-0.8537,-0.8539,-0.854,-0.8541,-0.8541,-0.8542,-0.8545,-0.8543,-0.8543,-0.8542,-0.8543,-0.8547,-0.8541,-0.8541,-0.8542,-0.8551,-0.8552,-0.8553,-0.8546,-0.8546,-0.8546,-0.8551,0,-0.8543,-0.8547,-0.8545,-0.8548,-0.8549,-0.8546,-0.8548,-0.8548,-0.8547,-0.8548,-0.8547,-0.8548,-0.8546,-0.8546,-0.8547,-0.8547,-0.8549,-0.8546,-0.8547,-0.8547,-0.8547,-0.8553,-0.8555,-0.8559,-0.8551,-0.8551,-0.8551,0,-0.8551,-0.8551,-0.8555,-0.8553,-0.8554,-0.8555,-0.8555,-0.8556,-0.8556,-0.8555,-0.8555,-0.8554,-0.8555,-0.8553,-0.8554,-0.8553,-0.8553,-0.8552,-0.8553,-0.8552,-0.8549,-0.8553,-0.856,-0.8561,-0.8552,-0.8552,-0.8552,0,-0.8557,-0.8559,-0.856,-0.856,-0.8559,-0.856,-0.856,-0.8559,-0.8559,-0.8559,-0.8559,-0.856,-0.856,-0.856,-0.8559,-0.8557,-0.8561,-0.8558,-0.856,-0.856,-0.856,-0.856,-0.8567,-0.8561,-0.8561,-0.8561,-0.8561,0,-0.8564,-0.8566,-0.8563,-0.8564,-0.8566,-0.8564,-0.8566,-0.8566,-0.8565,-0.8566,-0.8563,-0.8564,-0.8562,-0.8563,-0.8561,-0.8563,-0.8563,-0.8562,-0.8562,-0.8562,-0.8562,-0.8562,-0.8562,-0.8561,-0.8561,-0.8561,-0.8561,0,-0.8571,-0.857,-0.8571,-0.857,-0.8569,-0.8571,-0.8569,-0.857,-0.8569,-0.857,-0.857,-0.8568,-0.8569,-0.8567,-0.8568,-0.8567,-0.8569,-0.8568,-0.8569,-0.8568,-0.857,-0.857,-0.8577,-0.8577,-0.8571,-0.8571,-0.8571,0,-0.8576,-0.8577,-0.8575,-0.8576,-0.8575,-0.8576,-0.8576,-0.8573,-0.8574,-0.8573,-0.8574,-0.8574,-0.8574,-0.8575,-0.8573,-0.8573,-0.8572,-0.8575,-0.8572,-0.8572,-0.8572,-0.8572,-0.8571,-0.8575,-0.8575,-0.8575,-0.8575,0,-0.8583,-0.8582,-0.8582,-0.8582,-0.8582,-0.8581,-0.8581,-0.8581,-0.8579,-0.8579,-0.8579,-0.8579,-0.8579,-0.8579,-0.8579,-0.8578,-0.8576,-0.8576,-0.8577,-0.8577,-0.8577,-0.8576,-0.857,-0.8576,-0.8576,-0.8576,-0.8576,-0.8576,-0.8588,-0.8589,-0.8588,-0.8588,-0.8587,-0.8587,-0.8587,-0.8586,-0.8586,-0.8586,-0.8584,-0.8585,-0.8584,-0.8583,-0.8582,-0.8583,-0.8581,-0.8582,-0.8582,-0.8582,-0.8582,-0.8577,-0.8583,-0.8583,-0.8583,-0.8583,-0.8583,0,-0.8595,-0.8594,-0.8594,-0.8593,-0.8593,-0.8591,-0.8591,-0.8591,-0.8591,-0.859,-0.859,-0.859,-0.859,-0.8588,-0.8588,-0.8588,-0.8587,-0.8588,-0.8588,-0.8588,-0.8584,-0.8583,-0.8589,-0.8589,-0.8589,-0.8589,-0.8589,-0.8589,-0.8599,-0.86,-0.8599,-0.8599,-0.8598,-0.8598,-0.8598,-0.8597,-0.8596,-0.8596,-0.8596,-0.8595,-0.8594,-0.8593,-0.8593,-0.8592,-0.8592,-0.8593,-0.8592,-0.8589,-0.8588,-0.8587,-0.8587,-0.8593,-0.8593,-0.8596,-0.8596,-0.8596]},{"header":{"parameterUnit":"m.s-1","parameterCategory":1,"la1":30.2991,"la2":30.254,"lo1":-89.0895,"lo2":-89.0444,"dy":0.0017,"dx":0.0017,"nx":28,"ny":28,"refTime":"2026-02-09T09:00:00:Z","depth":0,"parameterNumber":3,"parameterNumberName":"V-component_of_WINDS"},"data":[0,0,0,0,0,0,0,0,0,0,0,0,0,0,0,0,0,0,0,0,0,0,0,0,0,0,0,0,0,0,0,0,0,0,0,0,0,0,0,0,0,0,0,0,0,0,0,0,0,0,0,0,0,0,0,0,0,0,0.3756,0.3757,0,0.3844,0.3845,0.3846,0.3887,0.3887,0.3886,0.3886,0.3978,0.398,0.3983,0,0,0,0,0,0,0,0,0,0,0,0,0,0.3625,0.3627,0.3756,0.3757,0.3758,0.3844,0.3845,0.3846,0.3887,0.3887,0.3886,0.3886,0.3977,0.398,0.3983,0,0,0,0,0,0,0,0,0,0,0,0,0,0.3694,0.3628,0.3756,0.3789,0.3792,0.3844,0.3845,0.3847,0.3887,0.3887,0.3886,0.3886,0.3976,0.398,0.3984,0.4009,0,0,0.3995,0.3997,0,0,0,0,0,0,0,0,0.369,0.3699,0.3783,0.3786,0.3791,0.3854,0.3833,0.3901,0.3887,0.3851,0.3886,0.3886,0.3937,0.3944,0.3961,0.4014,0.4018,0.3995,0.3998,0.3999,0.4,0,0,0,0,0,0,0,0.3686,0.3696,0.3791,0.3784,0.3789,0.38,0.3809,0.3846,0.3894,0.3854,0.3857,0.3867,0.3939,0.3957,0.3963,0.4019,0.3995,0.3999,0.4001,0.4002,0.4099,0.4099,0,0,0,0,0,0,0.3675,0.3691,0.3788,0.3794,0.3739,0.3802,0.3813,0.3834,0.3893,0.3902,0.3867,0.3868,0.3951,0.3959,0.3967,0.4002,0.3999,0.4003,0.4005,0.4098,0.4099,0.4099,0,0,0,0,0,0,0.3672,0.3683,0.3785,0.3743,0.3757,0.3804,0.3828,0.3836,0.3854,0.3903,0.3912,0.3876,0.3951,0.3961,0.3999,0.4005,0.4005,0.4008,0.4098,0.4098,0.4099,0.4071,0,0,0,0,0,0,0.3668,0.3682,0.3692,0.3743,0.3759,0.3815,0.3828,0.3838,0.386,0.3863,0.3914,0.3923,0.3952,0.3993,0.4002,0.4011,0.4011,0.4098,0.4098,0.4099,0.4072,0.4071,0.407,0,0,0,0,0,0.3663,0.3681,0.3692,0.3704,0.3772,0.3815,0.3824,0.3856,0.386,0.3871,0.3903,0.3921,0.4003,0.3996,0.4007,0.4017,0.4097,0.4098,0.4099,0.4072,0.4071,0.407,0,0,0,0,0,0,0.3629,0.3688,0.3701,0.3736,0.377,0.3821,0.3836,0.3854,0.3888,0.3889,0.3929,0.394,0.3974,0.3999,0.3991,0.4046,0.4052,0.4055,0.4028,0.4027,0.4026,0.402,0.4014,0,0,0,0,0,0.3625,0.3654,0.3705,0.373,0.3746,0.3788,0.3808,0.383,0.3867,0.3882,0.3917,0.3953,0.3987,0.4008,0.4042,0.4075,0.4088,0.4087,0.4086,0.4085,0.4088,0.4108,0.4109,0.4101,0.4101,0.4101,0,0,0.3618,0.3654,0.367,0.3724,0.3753,0.3783,0.38,0.3831,0.3854,0.3887,0.3924,0.3951,0.3994,0.4029,0.4047,0.4051,0.4092,0.4086,0.4085,0.4088,0.4109,0.4109,0.411,0.4102,0.4102,0.4101,0,0,0.3621,0.365,0.3675,0.3704,0.3748,0.3776,0.3782,0.3831,0.385,0.3888,0.3914,0.3942,0.3999,0.4029,0.4051,0.4066,0.4084,0.4076,0.407,0.409,0.4091,0.4091,0.4097,0.4099,0.4077,0.4077,0.4077,0,0.3607,0.3652,0.3686,0.3716,0.3739,0.377,0.3796,0.3823,0.3875,0.3891,0.3895,0.3969,0.4,0.4043,0.4047,0.4063,0.4072,0.407,0.4088,0.4089,0.409,0.4096,0.4098,0.4076,0.4076,0.4076,0.4077,0,0.3633,0.3665,0.368,0.3729,0.3755,0.3782,0.3821,0.3842,0.3862,0.389,0.3928,0.3967,0.4009,0.4021,0.4041,0.4068,0.4069,0.408,0.4087,0.4089,0.4095,0.4098,0.4074,0.4075,0.4075,0.4076,0,0,0.3617,0.3685,0.369,0.3714,0.3764,0.379,0.3819,0.386,0.3878,0.3914,0.394,0.3988,0.3999,0.4024,0.4048,0.4065,0.4075,0.4074,0.4075,0.4073,0.4108,0.41,0.4102,0.4087,0.4087,0.4088,0.4104,0,0.3627,0.3681,0.3712,0.3753,0.3783,0.3813,0.3839,0.3873,0.39,0.3929,0.3959,0.3993,0.4003,0.4019,0.4037,0.4069,0.4082,0.4069,0.4112,0.4114,0.4101,0.4105,0.4097,0.411,0.4107,0.4107,0.4108,0,0.3646,0.3681,0.3724,0.3773,0.3786,0.3809,0.385,0.3877,0.3917,0.3936,0.3964,0.3988,0.4021,0.4025,0.4072,0.4062,0.4082,0.41,0.4101,0.4107,0.4111,0.4112,0.4115,0.4117,0.4112,0.4111,0.4111,0,0.3631,0.3688,0.3722,0.3741,0.3798,0.3813,0.3838,0.3877,0.39,0.3936,0.3952,0.3991,0.4013,0.4043,0.4077,0.4076,0.412,0.4127,0.4137,0.4136,0.4145,0.4144,0.4153,0.4157,0.4156,0.4156,0.4156,0,0.3639,0.3665,0.3716,0.3737,0.3767,0.3803,0.3832,0.3859,0.3895,0.3922,0.395,0.3975,0.4018,0.4049,0.4076,0.4111,0.412,0.4136,0.4143,0.4134,0.4132,0.4148,0.4148,0.4157,0.4157,0.4157,0.4157,0,0.3627,0.3662,0.3701,0.3752,0.3765,0.3785,0.3829,0.3851,0.3879,0.3913,0.3923,0.3968,0.4005,0.4042,0.4092,0.411,0.4145,0.4154,0.4132,0.4136,0.4144,0.4143,0.4163,0.4168,0.4168,0.4168,0.4168,0,0.363,0.3651,0.3704,0.3724,0.3748,0.378,0.3803,0.384,0.3864,0.3911,0.3927,0.3967,0.4001,0.406,0.4097,0.4135,0.4146,0.415,0.4152,0.4142,0.4147,0.4146,0.4148,0.415,0.4149,0.4149,0.4149,0,0.3633,0.3649,0.3682,0.3721,0.3749,0.3781,0.3815,0.383,0.3873,0.3899,0.3937,0.3963,0.4015,0.4054,0.4098,0.4124,0.4144,0.4148,0.4153,0.4144,0.4131,0.4139,0.413,0.4148,0.4148,0.4148,0.4148,0.4148,0.363,0.3649,0.369,0.3726,0.3755,0.3786,0.3809,0.384,0.3873,0.3917,0.3937,0.3976,0.4017,0.4077,0.4103,0.4134,0.4139,0.4146,0.4147,0.4148,0.4147,0.4125,0.4142,0.4142,0.4142,0.4142,0.4142,0,0.3634,0.3662,0.3694,0.374,0.3769,0.3785,0.3823,0.3846,0.388,0.3916,0.3948,0.3993,0.4032,0.4072,0.4112,0.413,0.414,0.414,0.4139,0.4145,0.414,0.4132,0.4131,0.4131,0.4131,0.4131,0.4131,0.4131,0.364,0.3675,0.3696,0.3746,0.3774,0.3812,0.3833,0.3862,0.3891,0.3939,0.3971,0.3997,0.4035,0.4079,0.4115,0.4126,0.414,0.4136,0.415,0.4144,0.4145,0.4146,0.4139,0.4139,0.4139,0.4153,0.4153,0.4153]}]]